星链-30408 (STARLINK-30408 )

导读

STARLINK-30408是美国SpaceX公司星链计划中的卫星,于2023年9月9日发射升空。星链计划旨在构建全球卫星互联网星座,为全球偏远地区等提供宽带互联网接入服务。该卫星入轨后,将和其他星链卫星协同工作,进一步拓展星链网络的覆盖范围与服务能力。

基本信息
目录编号:
57824
目录名称:
STARLINK-30408
国际标识:
2023-138S
轨道中心:
EARTH
卫星名称:
星链-30408
卫星全名:
星链-30408 (STARLINK-30408 )
卫星状态:
在轨 (已飞行1092 天)
发射日期:
2023-09-09 UTC
国别 :
美国 (US)
星等 :
--
轨道信息
数据来源 国际轨道数据 AOE轨道数据
星历时间 2026-09-05T18:54:35+0800
9小时前
查看轨道信息
2026-09-03T08:00:00+0800
2天前
查看轨道信息
半长轴 6861.208km 6861.181km
偏心率 0.00013 0.0001506
轨道倾角 43.002° 43.002°
近地点辐角 270.498° 225.657°
升交点赤经 298.740° 312.604°
平近点角 89.572° 300.229°
近地点 482.179km 482.01km
远地点 483.963km 484.078km
周期 94.267分钟 94.267分钟
每日圈数 15.27573 15.275818
详细信息
固有亮度:
5
最大亮度:
0.3
卫星平台:
Starlink v2.0 mini
覆盖范围:
全球
运营商:
太空探索技术公司
运营商所在国:
美国
制造商(研发单位):
太空探索技术公司
制造商所在国:
美国
使用方式:
暂无
卫星简介
星链(Starlink)计划是由太空探索技术公司(SpaceX)提出的一个巨型低轨卫星互联网星座项目,计划在2019年至2024年间在太空搭建由约1.2万颗卫星组成的“星链”网络,其中1584颗将部署在地球上空550千米处的近地轨道,并从2020年开始工作。该卫星仍在工作。
2D轨道图
3D轨道图
轨道高度分析图
轨道倾角分析图
轨道综合分析图
查看轨道综合分析图
交会数据列表
事件ID 空间交会对象 最接近时刻(TCA) 交会距离 交会风险概率(CRP) 交会风险指数(CRI) 操作
CDM_260907-230305-782406-718221
2026-09-07T
23:03:51+0000
0.352 km
远距离
2.672356E-4 高风险 0.84
CDM_260907-142605-782406-718221
2026-09-07T
14:26:00+0000
0.650 km
远距离
6.107281E-5 中风险 0.71
CDM_260907-125105-782406-718221
2026-09-07T
12:51:51+0000
1.847 km
极远距离
2.083453E-6 低风险 0.41
CDM_260907-212905-782406-718221
2026-09-07T
21:29:41+0000
2.551 km
极远距离
1.044576E-6 低风险 0.35
CDM_260908-003805-782406-718221
2026-09-08T
00:38:00+0000
2.784 km
极远距离
9.19033E-7 极低风险 0.34